Location: Sedan
(39.2354°N, 78.5718°W)
Time: 20:55:37
(UTC+00:00)

ISS - Pass Details

Date: 01 December 2021
Orbit: 413 x 422 km, 51.6° (Epoch: 25 January)

Event Time Altitude Azimuth Distance (km) Brightness Sun altitude
Rises 23:47:01 0° 315° (NW) 2,383 0.5 -21.8°
Reaches altitude 10° 23:49:33 10° 334° (NNW) 1,513 -0.8 -22.3°
Enters shadow 23:50:02 12° 340° (NNW) 1,377 -1.1 -22.4°
